Time,TemperatureF,DewpointF,PressureIn,WindDirection,WindDirectionDegrees,WindSpeedMPH,WindSpeedGustMPH,Humidity,HourlyPrecipIn,Conditions,Clouds,dailyrainin,SolarRadiationWatts/m^2,SoftwareType,DateUTC
2013-10-04 00:01:00,69.0,66.6,29.92,ESE,117,0.0,0.0,92,0.00,RA,,0.00,0.0,WeatherDisplay:10.37,2013-10-04 05:01:00,
2013-10-04 00:02:00,69.1,66.7,29.92,ESE,117,0.0,0.0,92,0.00,RA,,0.00,0.0,WeatherDisplay:10.37,2013-10-04 05:02:00,
2013-10-04 00:05:00,69.2,66.8,29.92,ESE,117,0.0,0.0,92,0.00,RA,,0.00,0.0,WeatherDisplay:10.37,2013-10-04 05:05:00,
2013-10-04 00:07:00,69.2,66.8,29.92,ESE,117,0.0,0.0,92,0.00,RA,,0.00,0.0,WeatherDisplay:10.37,2013-10-04 05:07:00,
2013-10-04 00:09:00,69.3,66.9,29.92,ESE,117,0.0,0.0,92,0.00,RA,,0.00,0.0,WeatherDisplay:10.37,2013-10-04 05:09:00,
2013-10-04 00:10:00,69.3,66.9,29.92,ESE,117,0.0,0.0,92,0.00,CLR,,0.00,0.0,WeatherDisplay:10.37,2013-10-04 05:10:00,
2013-10-04 00:15:00,69.3,66.9,29.92,ESE,117,0.0,0.0,92,0.00,CLR,,0.00,0.0,WeatherDisplay:10.37,2013-10-04 05:15:00,
2013-10-04 00:16:00,69.3,66.9,29.92,ESE,117,0.0,0.0,92,0.00,CLR,,0.00,0.0,WeatherDisplay:10.37,2013-10-04 05:16:00,
2013-10-04 00:20:00,69.4,67.0,29.92,ESE,117,0.0,0.0,92,0.00,CLR,,0.00,0.0,WeatherDisplay:10.37,2013-10-04 05:20:00,
2013-10-04 00:25:00,69.3,66.9,29.93,ESE,117,0.0,0.0,92,0.00,CLR,,0.00,0.0,WeatherDisplay:10.37,2013-10-04 05:25:00,
2013-10-04 00:27:00,69.3,66.9,29.92,ESE,117,0.0,0.0,92,0.00,CLR,,0.00,0.0,WeatherDisplay:10.37,2013-10-04 05:27:00,
2013-10-04 00:32:00,69.2,66.8,29.92,ESE,117,0.0,0.0,92,0.00,CLR,,0.00,0.0,WeatherDisplay:10.37,2013-10-04 05:32:00,
2013-10-04 00:37:00,69.5,67.1,29.92,East,92,0.0,0.0,92,0.00,CLR,,0.00,0.0,WeatherDisplay:10.37,2013-10-04 05:37:00,
2013-10-04 00:42:00,69.5,67.1,29.92,East,92,0.0,0.0,92,0.00,CLR,,0.00,0.0,WeatherDisplay:10.37,2013-10-04 05:42:00,
2013-10-04 00:47:00,69.6,67.2,29.92,East,92,0.0,0.0,92,0.00,CLR,,0.00,0.0,WeatherDisplay:10.37,2013-10-04 05:47:00,
2013-10-04 00:52:00,69.6,67.2,29.92,East,92,0.0,0.0,92,0.00,CLR,,0.00,0.0,WeatherDisplay:10.37,2013-10-04 05:52:00,
2013-10-04 00:57:00,69.5,67.1,29.92,East,92,0.0,0.0,92,0.00,CLR,,0.00,0.0,WeatherDisplay:10.37,2013-10-04 05:57:00,
2013-10-04 01:02:00,69.3,66.9,29.92,East,92,0.0,0.0,92,0.00,CLR,,0.00,0.0,WeatherDisplay:10.37,2013-10-04 06:02:00,
2013-10-04 01:07:00,69.2,66.8,29.92,East,92,0.0,0.0,92,0.00,CLR,,0.00,0.0,WeatherDisplay:10.37,2013-10-04 06:07:00,
2013-10-04 01:12:00,69.3,67.2,29.92,East,92,0.0,0.0,93,0.00,CLR,,0.00,0.0,WeatherDisplay:10.37,2013-10-04 06:12:00,
2013-10-04 01:17:00,69.2,66.8,29.93,East,92,0.1,1.2,92,0.00,CLR,,0.00,0.0,WeatherDisplay:10.37,2013-10-04 06:17:00,
2013-10-04 01:22:00,69.1,66.7,29.93,East,92,0.0,0.0,92,0.00,CLR,,0.00,0.0,WeatherDisplay:10.37,2013-10-04 06:22:00,
2013-10-04 01:27:00,69.0,66.9,29.93,East,92,0.0,0.0,93,0.00,CLR,,0.00,0.0,WeatherDisplay:10.37,2013-10-04 06:27:00,
2013-10-04 01:32:00,68.9,66.8,29.93,North,10,0.1,1.2,93,0.00,CLR,,0.00,0.0,WeatherDisplay:10.37,2013-10-04 06:32:00,
2013-10-04 01:37:00,68.7,66.3,29.93,North,10,0.0,0.0,92,0.00,CLR,,0.00,0.0,WeatherDisplay:10.37,2013-10-04 06:37:00,
2013-10-04 01:42:00,69.0,66.9,29.93,North,10,0.0,0.0,93,0.00,CLR,,0.00,0.0,WeatherDisplay:10.37,2013-10-04 06:42:00,
2013-10-04 01:47:00,69.0,66.9,29.93,North,10,0.1,1.2,93,0.00,CLR,,0.00,0.0,WeatherDisplay:10.37,2013-10-04 06:47:00,
2013-10-04 01:52:00,69.0,66.9,29.93,North,10,1.0,2.3,93,0.00,CLR,,0.00,0.0,WeatherDisplay:10.37,2013-10-04 06:52:00,
2013-10-04 01:57:00,68.9,66.8,29.93,North,10,0.1,1.2,93,0.00,CLR,,0.00,0.0,WeatherDisplay:10.37,2013-10-04 06:57:00,
2013-10-04 02:02:00,69.0,66.9,29.93,North,10,0.0,0.0,93,0.00,CLR,,0.00,0.0,WeatherDisplay:10.37,2013-10-04 07:02:00,
2013-10-04 02:07:00,69.0,66.9,29.93,North,10,0.0,0.0,93,0.00,CLR,,0.00,0.0,WeatherDisplay:10.37,2013-10-04 07:07:00,
2013-10-04 02:12:00,68.9,66.8,29.93,North,10,1.2,2.3,93,0.00,CLR,,0.00,0.0,WeatherDisplay:10.37,2013-10-04 07:12:00,
2013-10-04 02:17:00,69.1,67.0,29.93,North,10,0.0,0.0,93,0.00,CLR,,0.00,0.0,WeatherDisplay:10.37,2013-10-04 07:17:00,
2013-10-04 02:22:00,69.0,66.9,29.93,North,10,0.0,0.0,93,0.00,CLR,,0.00,0.0,WeatherDisplay:10.37,2013-10-04 07:22:00,
2013-10-04 02:27:00,68.9,66.8,29.93,North,10,0.0,0.0,93,0.00,CLR,,0.00,0.0,WeatherDisplay:10.37,2013-10-04 07:27:00,
2013-10-04 02:32:00,68.9,66.8,29.93,NNE,17,0.0,1.2,93,0.00,CLR,,0.00,0.0,WeatherDisplay:10.37,2013-10-04 07:32:00,
2013-10-04 02:37:00,69.0,66.9,29.93,NNE,17,0.0,0.0,93,0.00,CLR,,0.00,0.0,WeatherDisplay:10.37,2013-10-04 07:37:00,
2013-10-04 02:42:00,69.3,67.2,29.93,NNE,16,0.0,0.0,93,0.00,CLR,,0.00,0.0,WeatherDisplay:10.37,2013-10-04 07:42:00,
2013-10-04 02:47:00,69.3,67.2,29.93,NNE,16,0.0,0.0,93,0.00,CLR,,0.00,0.0,WeatherDisplay:10.37,2013-10-04 07:47:00,
2013-10-04 02:52:00,69.5,67.4,29.92,NNE,18,0.2,1.2,93,0.00,CLR,,0.00,0.0,WeatherDisplay:10.37,2013-10-04 07:52:00,
2013-10-04 02:57:00,69.6,67.2,29.92,East,98,0.0,0.0,92,0.00,CLR,,0.00,0.0,WeatherDisplay:10.37,2013-10-04 07:57:00,
2013-10-04 03:02:00,69.7,67.6,29.92,East,98,0.0,0.0,93,0.00,CLR,,0.00,0.0,WeatherDisplay:10.37,2013-10-04 08:02:00,
2013-10-04 03:07:00,69.7,67.3,29.93,East,98,0.7,1.2,92,0.00,CLR,,0.00,0.0,WeatherDisplay:10.37,2013-10-04 08:07:00,
2013-10-04 03:12:00,69.5,67.1,29.92,East,98,0.0,0.0,92,0.00,CLR,,0.00,0.0,WeatherDisplay:10.37,2013-10-04 08:12:00,
2013-10-04 03:17:00,69.4,67.0,29.92,East,98,0.0,0.0,92,0.00,CLR,,0.00,0.0,WeatherDisplay:10.37,2013-10-04 08:17:00,
2013-10-04 03:22:00,69.1,66.7,29.92,East,98,0.0,0.0,92,0.00,CLR,,0.00,0.0,WeatherDisplay:10.37,2013-10-04 08:22:00,
2013-10-04 03:27:00,68.9,66.5,29.92,East,98,0.0,0.0,92,0.00,CLR,,0.00,0.0,WeatherDisplay:10.37,2013-10-04 08:27:00,
2013-10-04 03:32:00,68.9,66.8,29.92,ENE,66,0.0,0.0,93,0.00,CLR,,0.00,0.0,WeatherDisplay:10.37,2013-10-04 08:32:00,
2013-10-04 03:37:00,68.9,66.8,29.92,ENE,66,0.0,0.0,93,0.00,CLR,,0.00,0.0,WeatherDisplay:10.37,2013-10-04 08:37:00,
2013-10-04 03:42:00,68.8,66.7,29.92,ENE,66,0.0,0.0,93,0.00,CLR,,0.00,0.0,WeatherDisplay:10.37,2013-10-04 08:42:00,
2013-10-04 03:47:00,68.8,66.7,29.92,ENE,66,0.0,0.0,93,0.00,CLR,,0.00,0.0,WeatherDisplay:10.37,2013-10-04 08:47:00,
2013-10-04 03:52:00,68.8,66.7,29.92,ENE,66,0.0,0.0,93,0.00,CLR,,0.00,0.0,WeatherDisplay:10.37,2013-10-04 08:52:00,
2013-10-04 03:57:00,68.7,66.6,29.92,ENE,66,0.0,0.0,93,0.00,CLR,,0.00,0.0,WeatherDisplay:10.37,2013-10-04 08:57:00,
2013-10-04 04:02:00,68.6,66.5,29.92,ENE,66,0.0,0.0,93,0.00,CLR,,0.00,0.0,WeatherDisplay:10.37,2013-10-04 09:02:00,
2013-10-04 04:07:00,68.8,66.7,29.92,ENE,66,0.7,2.3,93,0.00,CLR,,0.00,0.0,WeatherDisplay:10.37,2013-10-04 09:07:00,
2013-10-04 04:12:00,68.6,66.5,29.92,ENE,66,0.0,0.0,93,0.00,CLR,,0.00,0.0,WeatherDisplay:10.37,2013-10-04 09:12:00,
2013-10-04 04:17:00,68.6,66.5,29.92,ENE,66,0.0,0.0,93,0.00,CLR,,0.00,0.0,WeatherDisplay:10.37,2013-10-04 09:17:00,
2013-10-04 04:22:00,68.6,66.5,29.92,ENE,66,0.0,0.0,93,0.00,CLR,,0.00,0.0,WeatherDisplay:10.37,2013-10-04 09:22:00,
2013-10-04 04:27:00,68.5,66.4,29.92,ENE,66,0.0,0.0,93,0.00,CLR,,0.00,0.0,WeatherDisplay:10.37,2013-10-04 09:27:00,
2013-10-04 04:32:00,68.6,66.8,29.92,ENE,66,0.0,0.0,94,0.00,CLR,,0.00,0.0,WeatherDisplay:10.37,2013-10-04 09:32:00,
2013-10-04 04:37:00,68.6,66.8,29.92,ENE,66,0.0,0.0,94,0.00,CLR,,0.00,0.0,WeatherDisplay:10.37,2013-10-04 09:37:00,
2013-10-04 04:42:00,68.4,66.6,29.92,ENE,66,0.1,1.2,94,0.00,CLR,,0.00,0.0,WeatherDisplay:10.37,2013-10-04 09:42:00,
2013-10-04 04:47:00,68.5,66.7,29.92,ENE,66,0.0,0.0,94,0.00,CLR,,0.00,0.0,WeatherDisplay:10.37,2013-10-04 09:47:00,
2013-10-04 04:52:00,68.4,66.3,29.93,ENE,66,0.0,0.0,93,0.00,CLR,,0.00,0.0,WeatherDisplay:10.37,2013-10-04 09:52:00,
2013-10-04 04:57:00,68.3,66.2,29.93,ENE,66,0.0,0.0,93,0.00,CLR,,0.00,0.0,WeatherDisplay:10.37,2013-10-04 09:57:00,
2013-10-04 05:02:00,68.4,66.6,29.93,ENE,66,0.0,0.0,94,0.00,CLR,,0.00,0.0,WeatherDisplay:10.37,2013-10-04 10:02:00,
2013-10-04 05:07:00,68.4,66.6,29.93,ENE,66,0.0,0.0,94,0.00,CLR,,0.00,0.0,WeatherDisplay:10.37,2013-10-04 10:07:00,
2013-10-04 05:12:00,68.3,66.5,29.92,ENE,66,0.0,0.0,94,0.00,CLR,,0.00,0.0,WeatherDisplay:10.37,2013-10-04 10:12:00,
2013-10-04 05:17:00,68.3,66.5,29.92,ENE,66,0.0,0.0,94,0.00,CLR,,0.00,0.0,WeatherDisplay:10.37,2013-10-04 10:17:00,
2013-10-04 05:22:00,68.2,66.4,29.93,ENE,66,0.0,0.0,94,0.00,CLR,,0.00,0.0,WeatherDisplay:10.37,2013-10-04 10:22:00,
2013-10-04 05:27:00,68.2,66.4,29.93,ENE,66,0.0,0.0,94,0.00,CLR,,0.00,0.0,WeatherDisplay:10.37,2013-10-04 10:27:00,
2013-10-04 05:32:00,68.3,66.5,29.93,ENE,66,0.0,0.0,94,0.01,RA,,0.01,0.0,WeatherDisplay:10.37,2013-10-04 10:32:00,
2013-10-04 05:37:00,68.4,66.6,29.93,ENE,66,0.0,0.0,94,0.01,RA,,0.01,0.0,WeatherDisplay:10.37,2013-10-04 10:37:00,
2013-10-04 05:42:00,68.4,66.6,29.93,ENE,66,0.0,0.0,94,0.01,CLR,,0.01,0.0,WeatherDisplay:10.37,2013-10-04 10:42:00,
2013-10-04 05:47:00,68.4,66.6,29.93,ENE,66,0.0,0.0,94,0.01,CLR,,0.01,0.0,WeatherDisplay:10.37,2013-10-04 10:47:00,
2013-10-04 05:52:00,68.4,66.6,29.93,ENE,66,0.0,0.0,94,0.01,CLR,,0.01,0.0,WeatherDisplay:10.37,2013-10-04 10:52:00,
2013-10-04 05:57:00,68.3,66.5,29.93,ENE,66,0.0,0.0,94,0.01,CLR,,0.01,0.0,WeatherDisplay:10.37,2013-10-04 10:57:00,
2013-10-04 06:02:00,68.1,66.3,29.93,ENE,66,0.0,0.0,94,0.01,BKN,,0.01,0.0,WeatherDisplay:10.37,2013-10-04 11:02:00,
2013-10-04 06:07:00,68.1,66.3,29.93,ENE,66,0.0,0.0,94,0.01,BKN,,0.01,0.0,WeatherDisplay:10.37,2013-10-04 11:07:00,
2013-10-04 06:12:00,68.0,66.2,29.93,ENE,66,0.0,0.0,94,0.01,BKN,,0.01,0.0,WeatherDisplay:10.37,2013-10-04 11:12:00,
2013-10-04 06:17:00,68.1,66.3,29.93,ENE,66,0.0,0.0,94,0.01,BKN,,0.01,0.0,WeatherDisplay:10.37,2013-10-04 11:17:00,
2013-10-04 06:22:00,68.1,66.3,29.93,ENE,66,0.0,0.0,94,0.01,BKN,,0.01,0.0,WeatherDisplay:10.37,2013-10-04 11:22:00,
2013-10-04 06:27:00,68.0,66.2,29.93,ENE,66,0.1,0.0,94,0.01,BKN,,0.01,0.0,WeatherDisplay:10.37,2013-10-04 11:27:00,
2013-10-04 06:32:00,68.0,66.2,29.93,ENE,66,0.0,0.0,94,0.00,BKN,,0.01,0.0,WeatherDisplay:10.37,2013-10-04 11:32:00,
2013-10-04 06:37:00,67.9,66.1,29.93,ENE,66,0.0,0.0,94,0.00,BKN,,0.01,0.0,WeatherDisplay:10.37,2013-10-04 11:37:00,
2013-10-04 06:42:00,67.9,66.1,29.93,ENE,66,0.0,0.0,94,0.00,BKN,,0.01,0.0,WeatherDisplay:10.37,2013-10-04 11:42:00,
2013-10-04 06:47:00,67.9,66.1,29.93,ENE,66,0.0,0.0,94,0.00,BKN,,0.01,0.0,WeatherDisplay:10.37,2013-10-04 11:47:00,
2013-10-04 06:52:00,67.9,66.1,29.93,ENE,66,0.0,0.0,94,0.00,BKN,,0.01,0.0,WeatherDisplay:10.37,2013-10-04 11:52:00,
2013-10-04 06:57:00,67.9,66.1,29.93,ENE,66,0.0,0.0,94,0.00,BKN,,0.01,0.0,WeatherDisplay:10.37,2013-10-04 11:57:00,
2013-10-04 07:02:00,67.9,66.1,29.93,ENE,66,0.0,0.0,94,0.00,CLR,,0.01,0.0,WeatherDisplay:10.37,2013-10-04 12:02:00,
2013-10-04 07:07:00,68.0,66.2,29.93,ENE,66,0.0,0.0,94,0.00,CLR,,0.01,0.0,WeatherDisplay:10.37,2013-10-04 12:07:00,
2013-10-04 07:12:00,67.8,66.0,29.93,ENE,66,0.0,0.0,94,0.00,CLR,,0.01,0.0,WeatherDisplay:10.37,2013-10-04 12:12:00,
2013-10-04 07:17:00,67.9,66.1,29.94,ENE,66,0.0,0.0,94,0.00,CLR,,0.01,7.0,WeatherDisplay:10.37,2013-10-04 12:17:00,
2013-10-04 07:22:00,67.7,65.9,29.94,ENE,66,0.0,0.0,94,0.00,CLR,,0.01,11.0,WeatherDisplay:10.37,2013-10-04 12:22:00,
2013-10-04 07:27:00,67.7,65.9,29.94,ENE,66,0.0,0.0,94,0.00,CLR,,0.01,18.0,WeatherDisplay:10.37,2013-10-04 12:27:00,
2013-10-04 07:32:00,67.5,65.7,29.94,ENE,66,0.0,0.0,94,0.00,CLR,,0.01,25.0,WeatherDisplay:10.37,2013-10-04 12:32:00,
2013-10-04 07:37:00,67.6,65.8,29.94,ENE,66,0.0,0.0,94,0.00,CLR,,0.01,28.0,WeatherDisplay:10.37,2013-10-04 12:37:00,
2013-10-04 07:42:00,67.7,65.9,29.94,ENE,66,0.0,0.0,94,0.00,CLR,,0.01,35.0,WeatherDisplay:10.37,2013-10-04 12:42:00,
2013-10-04 07:47:00,67.8,66.0,29.94,ENE,66,0.0,0.0,94,0.00,CLR,,0.01,40.0,WeatherDisplay:10.37,2013-10-04 12:47:00,
2013-10-04 07:52:00,68.1,66.6,29.94,ENE,66,0.0,0.0,95,0.00,CLR,,0.01,81.0,WeatherDisplay:10.37,2013-10-04 12:52:00,
2013-10-04 07:57:00,68.6,67.1,29.94,ENE,66,0.0,0.0,95,0.00,CLR,,0.01,91.0,WeatherDisplay:10.37,2013-10-04 12:57:00,
2013-10-04 08:02:00,69.1,67.6,29.94,ENE,66,0.0,0.0,95,0.00,CLR,,0.01,86.0,WeatherDisplay:10.37,2013-10-04 13:02:00,
2013-10-04 08:07:00,69.4,67.9,29.94,ENE,66,0.0,0.0,95,0.00,CLR,,0.01,83.0,WeatherDisplay:10.37,2013-10-04 13:07:00,
2013-10-04 08:12:00,69.7,67.9,29.94,ENE,66,0.0,0.0,94,0.00,CLR,,0.01,76.0,WeatherDisplay:10.37,2013-10-04 13:12:00,
2013-10-04 08:17:00,69.8,68.0,29.94,ENE,66,0.0,0.0,94,0.00,CLR,,0.01,76.0,WeatherDisplay:10.37,2013-10-04 13:17:00,
2013-10-04 08:22:00,70.1,68.3,29.95,ENE,59,0.8,2.3,94,0.00,CLR,,0.01,132.0,WeatherDisplay:10.37,2013-10-04 13:22:00,
2013-10-04 08:27:00,70.5,68.7,29.95,ENE,59,0.0,0.0,94,0.00,CLR,,0.01,141.0,WeatherDisplay:10.37,2013-10-04 13:27:00,
2013-10-04 08:32:00,71.2,69.1,29.95,ENE,59,0.0,0.0,93,0.00,CLR,,0.01,204.0,WeatherDisplay:10.37,2013-10-04 13:32:00,
2013-10-04 08:37:00,71.8,69.3,29.95,NE,40,0.8,1.3,92,0.00,CLR,,0.01,218.0,WeatherDisplay:10.37,2013-10-04 13:37:00,
2013-10-04 08:42:00,72.3,69.5,29.95,NE,40,0.2,1.2,91,0.00,CLR,,0.01,202.0,WeatherDisplay:10.37,2013-10-04 13:42:00,
2013-10-04 08:47:00,72.5,69.1,29.95,NNE,24,0.1,2.3,89,0.00,CLR,,0.01,234.0,WeatherDisplay:10.37,2013-10-04 13:47:00,
2013-10-04 08:52:00,73.4,70.0,29.95,NNE,24,0.0,0.0,89,0.00,CLR,,0.01,232.0,WeatherDisplay:10.37,2013-10-04 13:52:00,
2013-10-04 08:57:00,73.7,69.6,29.95,NNE,24,1.2,2.3,87,0.00,CLR,,0.01,271.0,WeatherDisplay:10.37,2013-10-04 13:57:00,
2013-10-04 09:02:00,74.4,70.6,29.95,NNE,24,0.8,1.3,88,0.00,CLR,,0.01,285.0,WeatherDisplay:10.37,2013-10-04 14:02:00,
2013-10-04 09:07:00,74.5,69.7,29.95,ESE,103,4.0,8.1,85,0.00,CLR,,0.01,285.0,WeatherDisplay:10.37,2013-10-04 14:07:00,
2013-10-04 09:12:00,74.9,70.1,29.95,SE,125,5.2,6.9,85,0.00,CLR,,0.01,329.0,WeatherDisplay:10.37,2013-10-04 14:12:00,
2013-10-04 09:17:00,75.5,70.7,29.95,ESE,109,4.6,5.8,85,0.00,CLR,,0.01,343.0,WeatherDisplay:10.37,2013-10-04 14:17:00,
2013-10-04 09:22:00,75.8,70.6,29.95,East,82,2.0,9.2,84,0.00,CLR,,0.01,376.0,WeatherDisplay:10.37,2013-10-04 14:22:00,
2013-10-04 09:27:00,76.2,70.7,29.95,ESE,114,3.5,5.8,83,0.00,CLR,,0.01,294.0,WeatherDisplay:10.37,2013-10-04 14:27:00,
2013-10-04 09:32:00,76.1,70.2,29.95,East,93,4.6,6.9,82,0.00,CLR,,0.01,371.0,WeatherDisplay:10.37,2013-10-04 14:32:00,
2013-10-04 09:37:00,76.5,70.6,29.95,East,89,3.3,9.2,82,0.00,CLR,,0.01,390.0,WeatherDisplay:10.37,2013-10-04 14:37:00,
2013-10-04 09:42:00,76.7,70.8,29.95,ESE,121,1.9,6.9,82,0.00,CLR,,0.01,292.0,WeatherDisplay:10.37,2013-10-04 14:42:00,
2013-10-04 09:47:00,77.3,71.0,29.95,ENE,75,4.4,6.9,81,0.00,CLR,,0.01,406.0,WeatherDisplay:10.37,2013-10-04 14:47:00,
2013-10-04 09:52:00,77.3,71.0,29.95,South,170,4.1,9.2,81,0.00,CLR,,0.01,443.0,WeatherDisplay:10.37,2013-10-04 14:52:00,
2013-10-04 09:57:00,77.4,70.7,29.95,SSE,158,4.0,10.4,80,0.00,CLR,,0.01,455.0,WeatherDisplay:10.37,2013-10-04 14:57:00,
2013-10-04 10:02:00,77.8,71.1,29.95,East,92,4.2,4.2,80,0.00,CLR,,0.01,494.0,WeatherDisplay:10.37,2013-10-04 15:02:00,
2013-10-04 10:07:00,78.2,70.8,29.95,SE,126,3.6,5.3,78,0.00,CLR,,0.01,466.0,WeatherDisplay:10.37,2013-10-04 15:07:00,
2013-10-04 10:12:00,78.4,71.3,29.95,East,94,7.0,7.9,79,0.00,CLR,,0.01,457.0,WeatherDisplay:10.37,2013-10-04 15:12:00,
2013-10-04 10:17:00,78.5,70.7,29.95,ENE,61,5.1,8.1,77,0.00,CLR,,0.01,580.0,WeatherDisplay:10.37,2013-10-04 15:17:00,
2013-10-04 10:18:00,78.5,70.7,29.95,East,101,1.9,5.8,77,0.00,CLR,,0.01,580.0,WeatherDisplay:10.37,2013-10-04 15:18:00,
2013-10-04 10:23:00,79.1,71.6,29.95,ESE,113,0.1,2.3,78,0.00,CLR,,0.01,543.0,WeatherDisplay:10.37,2013-10-04 15:23:00,
2013-10-04 10:28:00,79.5,70.5,29.95,SSW,201,3.8,5.8,74,0.00,CLR,,0.01,497.0,WeatherDisplay:10.37,2013-10-04 15:28:00,
2013-10-04 10:33:00,79.5,70.5,29.95,ESE,113,2.3,2.3,74,0.00,CLR,,0.01,559.0,WeatherDisplay:10.37,2013-10-04 15:33:00,
2013-10-04 10:38:00,79.6,70.2,29.95,ESE,123,2.9,8.1,73,0.00,CLR,,0.01,589.0,WeatherDisplay:10.37,2013-10-04 15:38:00,
2013-10-04 10:43:00,79.4,70.4,29.95,SSE,153,5.2,5.8,74,0.00,CLR,,0.01,536.0,WeatherDisplay:10.37,2013-10-04 15:43:00,
2013-10-04 10:48:00,79.5,71.7,29.95,SE,132,0.1,2.3,77,0.00,CLR,,0.01,617.0,WeatherDisplay:10.37,2013-10-04 15:48:00,
2013-10-04 10:53:00,80.2,70.8,29.95,East,82,2.9,8.1,73,0.00,CLR,,0.01,617.0,WeatherDisplay:10.37,2013-10-04 15:53:00,
2013-10-04 10:58:00,79.8,70.0,29.95,East,92,1.2,6.9,72,0.00,CLR,,0.01,128.0,WeatherDisplay:10.37,2013-10-04 15:58:00,
2013-10-04 11:03:00,79.6,70.2,29.95,SE,126,2.7,5.8,73,0.00,FEW,,0.01,501.0,WeatherDisplay:10.37,2013-10-04 16:03:00,
2013-10-04 11:08:00,80.0,70.6,29.94,East,85,3.2,6.9,73,0.00,FEW,,0.01,645.0,WeatherDisplay:10.37,2013-10-04 16:08:00,
2013-10-04 11:13:00,81.0,71.1,29.94,NNE,12,3.2,3.5,72,0.00,FEW,,0.01,696.0,WeatherDisplay:10.37,2013-10-04 16:13:00,
2013-10-04 11:18:00,80.8,69.7,29.94,SE,125,1.9,2.3,69,0.00,FEW,,0.01,585.0,WeatherDisplay:10.37,2013-10-04 16:18:00,
2013-10-04 11:23:00,81.1,71.2,29.94,NE,49,1.8,2.6,72,0.00,FEW,,0.01,687.0,WeatherDisplay:10.37,2013-10-04 16:23:00,
2013-10-04 11:28:00,81.1,70.4,29.94,ESE,123,1.7,1.7,70,0.00,FEW,,0.01,679.0,WeatherDisplay:10.37,2013-10-04 16:28:00,
2013-10-04 11:33:00,81.3,70.6,29.94,ESE,103,2.6,2.6,70,0.00,FEW,,0.01,729.0,WeatherDisplay:10.37,2013-10-04 16:33:00,
2013-10-04 11:38:00,81.3,70.2,29.94,North,5,3.0,5.3,69,0.00,FEW,,0.01,214.0,WeatherDisplay:10.37,2013-10-04 16:38:00,
2013-10-04 11:43:00,81.5,70.8,29.94,NNW,340,1.9,3.5,70,0.00,FEW,,0.01,779.0,WeatherDisplay:10.37,2013-10-04 16:43:00,
2013-10-04 11:48:00,82.5,69.5,29.94,NW,319,0.3,3.5,65,0.00,FEW,,0.01,710.0,WeatherDisplay:10.37,2013-10-04 16:48:00,
2013-10-04 11:53:00,82.7,69.7,29.94,West,281,1.4,2.3,65,0.00,FEW,,0.01,694.0,WeatherDisplay:10.37,2013-10-04 16:53:00,
2013-10-04 11:58:00,83.2,70.2,29.94,East,92,2.7,3.5,65,0.00,FEW,,0.01,759.0,WeatherDisplay:10.37,2013-10-04 16:58:00,
2013-10-04 12:03:00,83.9,69.0,29.94,South,181,3.0,6.6,61,0.00,FEW,,0.01,795.0,WeatherDisplay:10.37,2013-10-04 17:03:00,
2013-10-04 12:08:00,84.0,69.6,29.94,SW,233,4.0,4.0,62,0.00,FEW,,0.01,731.0,WeatherDisplay:10.37,2013-10-04 17:08:00,
2013-10-04 12:13:00,83.6,68.7,29.94,East,99,4.6,6.9,61,0.00,FEW,,0.01,563.0,WeatherDisplay:10.37,2013-10-04 17:13:00,
2013-10-04 12:18:00,83.4,67.1,29.94,East,92,3.0,5.8,58,0.00,FEW,,0.01,371.0,WeatherDisplay:10.37,2013-10-04 17:18:00,
2013-10-04 12:23:00,83.7,66.8,29.94,SSW,195,5.7,6.9,57,0.00,FEW,,0.01,819.0,WeatherDisplay:10.37,2013-10-04 17:23:00,
2013-10-04 12:28:00,84.1,66.2,29.93,SW,220,0.5,5.8,55,0.00,FEW,,0.01,543.0,WeatherDisplay:10.37,2013-10-04 17:28:00,
2013-10-04 12:33:00,84.2,66.3,29.93,SW,234,3.7,6.9,55,0.00,FEW,,0.01,798.0,WeatherDisplay:10.37,2013-10-04 17:33:00,
2013-10-04 12:58:00,84.1,67.2,29.93,NNE,32,4.2,5.8,57,0.00,FEW,,0.01,752.0,WeatherDisplay:10.37,2013-10-04 17:58:00,
2013-10-04 13:03:00,84.4,66.5,29.92,SW,219,3.6,3.6,55,0.00,SCT,,0.01,865.0,WeatherDisplay:10.37,2013-10-04 18:03:00,
2013-10-04 13:08:00,85.1,67.1,29.92,SW,231,3.5,3.5,55,0.00,SCT,,0.01,798.0,WeatherDisplay:10.37,2013-10-04 18:08:00,
2013-10-04 13:13:00,85.6,67.0,29.92,East,96,1.1,3.5,54,0.00,SCT,,0.01,737.0,WeatherDisplay:10.37,2013-10-04 18:13:00,
2013-10-04 13:18:00,86.1,68.6,29.92,SE,129,2.3,2.3,56,0.00,SCT,,0.01,810.0,WeatherDisplay:10.37,2013-10-04 18:18:00,
2013-10-04 13:23:00,86.3,67.7,29.91,SE,140,2.9,8.1,54,0.00,SCT,,0.01,721.0,WeatherDisplay:10.37,2013-10-04 18:23:00,
2013-10-04 13:28:00,85.8,67.2,29.91,SE,133,1.5,1.5,54,0.00,SCT,,0.01,784.0,WeatherDisplay:10.37,2013-10-04 18:28:00,
2013-10-04 13:33:00,85.6,66.5,29.91,East,100,2.4,6.9,53,0.00,SCT,,0.01,684.0,WeatherDisplay:10.37,2013-10-04 18:33:00,
2013-10-04 13:38:00,85.8,67.8,29.91,ESE,108,0.6,2.3,55,0.00,SCT,,0.01,837.0,WeatherDisplay:10.37,2013-10-04 18:38:00,
2013-10-04 13:43:00,86.1,65.9,29.91,South,169,6.4,9.2,51,0.00,SCT,,0.01,599.0,WeatherDisplay:10.37,2013-10-04 18:43:00,
2013-10-04 13:48:00,86.1,65.3,29.90,South,182,5.0,6.9,50,0.00,SCT,,0.01,756.0,WeatherDisplay:10.37,2013-10-04 18:48:00,
2013-10-04 13:53:00,86.3,66.0,29.90,SSW,205,0.1,1.2,51,0.00,SCT,,0.01,659.0,WeatherDisplay:10.37,2013-10-04 18:53:00,
2013-10-04 13:58:00,86.5,65.7,29.90,ENE,58,5.1,8.1,50,0.00,SCT,,0.01,773.0,WeatherDisplay:10.37,2013-10-04 18:58:00,
2013-10-04 14:03:00,86.3,64.3,29.89,SSE,152,5.6,9.2,48,0.00,FEW,,0.01,773.0,WeatherDisplay:10.37,2013-10-04 19:03:00,
2013-10-04 14:08:00,87.1,66.2,29.89,North,5,4.3,5.8,50,0.00,FEW,,0.01,742.0,WeatherDisplay:10.37,2013-10-04 19:08:00,
2013-10-04 14:13:00,87.7,65.0,29.89,SSW,207,2.4,3.5,47,0.00,FEW,,0.01,687.0,WeatherDisplay:10.37,2013-10-04 19:13:00,
2013-10-04 14:18:00,87.3,64.6,29.89,South,188,6.5,9.2,47,0.00,FEW,,0.01,742.0,WeatherDisplay:10.37,2013-10-04 19:18:00,
2013-10-04 14:23:00,87.6,64.3,29.89,SE,132,5.1,9.2,46,0.00,FEW,,0.01,737.0,WeatherDisplay:10.37,2013-10-04 19:23:00,
2013-10-04 14:28:00,87.6,66.1,29.89,East,90,4.0,8.1,49,0.00,FEW,,0.01,747.0,WeatherDisplay:10.37,2013-10-04 19:28:00,
2013-10-04 14:33:00,87.8,64.4,29.89,South,188,5.2,8.1,46,0.00,FEW,,0.01,780.0,WeatherDisplay:10.37,2013-10-04 19:33:00,
2013-10-04 14:38:00,87.9,64.5,29.89,SE,142,5.0,8.1,46,0.00,FEW,,0.01,679.0,WeatherDisplay:10.37,2013-10-04 19:38:00,
2013-10-04 14:43:00,87.9,63.9,29.89,SW,214,5.5,8.1,45,0.00,FEW,,0.01,513.0,WeatherDisplay:10.37,2013-10-04 19:43:00,
2013-10-04 14:48:00,87.1,63.2,29.89,South,187,4.4,5.8,45,0.00,FEW,,0.01,401.0,WeatherDisplay:10.37,2013-10-04 19:48:00,
2013-10-04 14:53:00,87.3,63.4,29.88,ESE,113,3.2,4.0,45,0.00,FEW,,0.01,745.0,WeatherDisplay:10.37,2013-10-04 19:53:00,
2013-10-04 14:58:00,88.0,64.0,29.88,South,190,6.2,9.2,45,0.00,FEW,,0.01,691.0,WeatherDisplay:10.37,2013-10-04 19:58:00,
2013-10-04 15:03:00,88.0,63.4,29.88,SSW,192,4.8,7.9,44,0.00,OVC,,0.01,563.0,WeatherDisplay:10.37,2013-10-04 20:03:00,
2013-10-04 15:08:00,87.5,62.9,29.88,ESE,108,2.6,6.9,44,0.00,OVC,,0.01,216.0,WeatherDisplay:10.37,2013-10-04 20:08:00,
2013-10-04 15:13:00,86.6,62.1,29.88,SSW,196,6.0,8.1,44,0.00,OVC,,0.01,260.0,WeatherDisplay:10.37,2013-10-04 20:13:00,
2013-10-04 15:18:00,86.1,61.6,29.88,SE,132,1.6,4.0,44,0.00,OVC,,0.01,415.0,WeatherDisplay:10.37,2013-10-04 20:18:00,
2013-10-04 15:23:00,86.6,62.1,29.88,South,184,3.4,5.8,44,0.00,OVC,,0.01,626.0,WeatherDisplay:10.37,2013-10-04 20:23:00,
2013-10-04 15:28:00,87.7,62.4,29.88,South,180,7.3,12.7,43,0.00,OVC,,0.01,742.0,WeatherDisplay:10.37,2013-10-04 20:28:00,
2013-10-04 15:33:00,88.1,63.4,29.87,SSE,163,3.4,6.9,44,0.00,OVC,,0.01,527.0,WeatherDisplay:10.37,2013-10-04 20:33:00,
2013-10-04 15:38:00,88.3,63.0,29.87,ENE,61,4.8,10.4,43,0.00,OVC,,0.01,585.0,WeatherDisplay:10.37,2013-10-04 20:38:00,
2013-10-04 15:44:00,88.2,62.2,29.87,SSE,157,7.1,8.1,42,0.00,OVC,,0.01,571.0,WeatherDisplay:10.37,2013-10-04 20:44:00,
2013-10-04 15:49:00,88.0,62.7,29.88,SSW,195,7.0,9.2,43,0.00,OVC,,0.01,587.0,WeatherDisplay:10.37,2013-10-04 20:49:00,
2013-10-04 15:54:00,88.2,63.5,29.87,SW,218,3.6,5.8,44,0.00,OVC,,0.01,410.0,WeatherDisplay:10.37,2013-10-04 20:54:00,
2013-10-04 15:59:00,88.1,62.8,29.87,South,186,4.5,6.9,43,0.00,OVC,,0.01,353.0,WeatherDisplay:10.37,2013-10-04 20:59:00,
2013-10-04 16:04:00,88.1,63.4,29.87,South,184,4.1,9.2,44,0.00,FEW,,0.01,548.0,WeatherDisplay:10.37,2013-10-04 21:04:00,
2013-10-04 16:09:00,88.2,64.2,29.87,SW,220,4.6,8.1,45,0.00,FEW,,0.01,533.0,WeatherDisplay:10.37,2013-10-04 21:09:00,
2013-10-04 16:14:00,88.1,64.1,29.87,South,176,6.7,9.2,45,0.00,FEW,,0.01,573.0,WeatherDisplay:10.37,2013-10-04 21:14:00,
2013-10-04 16:19:00,87.9,63.9,29.87,ESE,121,5.8,9.2,45,0.00,FEW,,0.01,404.0,WeatherDisplay:10.37,2013-10-04 21:19:00,
2013-10-04 16:24:00,87.9,63.9,29.87,South,173,3.4,4.0,45,0.00,FEW,,0.01,459.0,WeatherDisplay:10.37,2013-10-04 21:24:00,
2013-10-04 16:29:00,87.7,63.1,29.87,SSW,198,5.9,8.1,44,0.00,FEW,,0.01,446.0,WeatherDisplay:10.37,2013-10-04 21:29:00,
2013-10-04 16:34:00,87.0,63.1,29.87,SSE,161,8.1,11.5,45,0.00,FEW,,0.01,141.0,WeatherDisplay:10.37,2013-10-04 21:34:00,
2013-10-04 16:39:00,86.0,63.4,29.88,South,187,1.0,2.3,47,0.00,FEW,,0.01,211.0,WeatherDisplay:10.37,2013-10-04 21:39:00,
2013-10-04 16:44:00,86.0,64.6,29.87,ESE,115,4.4,10.4,49,0.00,FEW,,0.01,476.0,WeatherDisplay:10.37,2013-10-04 21:44:00,
2013-10-04 16:49:00,86.8,64.8,29.88,SSE,163,3.5,5.8,48,0.00,FEW,,0.01,346.0,WeatherDisplay:10.37,2013-10-04 21:49:00,
2013-10-04 16:54:00,86.7,64.7,29.88,SSE,154,3.5,6.9,48,0.00,FEW,,0.01,192.0,WeatherDisplay:10.37,2013-10-04 21:54:00,
2013-10-04 16:59:00,86.3,64.3,29.88,South,178,2.5,3.5,48,0.00,FEW,,0.01,139.0,WeatherDisplay:10.37,2013-10-04 21:59:00,
2013-10-04 17:04:00,86.1,64.7,29.88,East,94,3.8,8.1,49,0.00,CLR,,0.01,114.0,WeatherDisplay:10.37,2013-10-04 22:04:00,
2013-10-04 17:09:00,86.2,64.2,29.88,SW,220,4.0,5.8,48,0.00,CLR,,0.01,120.0,WeatherDisplay:10.37,2013-10-04 22:09:00,
2013-10-04 17:14:00,86.3,65.5,29.88,ESE,106,1.5,5.8,50,0.00,CLR,,0.01,179.0,WeatherDisplay:10.37,2013-10-04 22:14:00,
2013-10-04 17:19:00,86.3,64.9,29.87,SSE,148,4.1,5.8,49,0.00,CLR,,0.01,158.0,WeatherDisplay:10.37,2013-10-04 22:19:00,
2013-10-04 17:24:00,86.3,65.5,29.87,SSW,192,3.9,6.9,50,0.00,CLR,,0.01,265.0,WeatherDisplay:10.37,2013-10-04 22:24:00,
2013-10-04 17:29:00,86.2,65.4,29.87,SW,226,3.1,5.8,50,0.00,CLR,,0.01,257.0,WeatherDisplay:10.37,2013-10-04 22:29:00,
2013-10-04 17:34:00,86.0,65.8,29.87,ESE,119,0.3,1.3,51,0.00,CLR,,0.01,91.0,WeatherDisplay:10.37,2013-10-04 22:34:00,
2013-10-04 17:39:00,85.7,64.9,29.87,ESE,118,2.0,6.9,50,0.00,CLR,,0.01,69.0,WeatherDisplay:10.37,2013-10-04 22:39:00,
2013-10-04 17:44:00,85.4,65.2,29.87,SE,140,1.4,3.5,51,0.00,CLR,,0.01,63.0,WeatherDisplay:10.37,2013-10-04 22:44:00,
2013-10-04 17:49:00,85.2,65.0,29.87,SE,144,2.5,3.5,51,0.00,CLR,,0.01,58.0,WeatherDisplay:10.37,2013-10-04 22:49:00,
2013-10-04 17:54:00,85.0,66.0,29.88,SE,142,0.0,1.2,53,0.00,CLR,,0.01,51.0,WeatherDisplay:10.37,2013-10-04 22:54:00,
2013-10-04 17:59:00,84.7,65.7,29.88,SSW,195,0.5,2.3,53,0.00,CLR,,0.01,47.0,WeatherDisplay:10.37,2013-10-04 22:59:00,
2013-10-04 18:04:00,84.4,65.4,29.88,SSW,200,3.1,6.6,53,0.00,CLR,,0.01,53.0,WeatherDisplay:10.37,2013-10-04 23:04:00,
2013-10-04 18:09:00,84.2,65.2,29.88,SSW,197,3.7,5.8,53,0.00,CLR,,0.01,51.0,WeatherDisplay:10.37,2013-10-04 23:09:00,
2013-10-04 18:14:00,84.0,66.1,29.88,South,177,0.0,1.2,55,0.00,CLR,,0.01,51.0,WeatherDisplay:10.37,2013-10-04 23:14:00,
2013-10-04 18:19:00,83.7,65.8,29.88,SE,135,0.0,0.0,55,0.00,CLR,,0.01,47.0,WeatherDisplay:10.37,2013-10-04 23:19:00,
2013-10-04 18:24:00,83.4,65.5,29.88,NNE,12,1.3,3.5,55,0.00,CLR,,0.01,26.0,WeatherDisplay:10.37,2013-10-04 23:24:00,
2013-10-04 18:29:00,83.1,65.8,29.88,ENE,58,0.0,0.0,56,0.00,CLR,,0.01,19.0,WeatherDisplay:10.37,2013-10-04 23:29:00,
2013-10-04 18:34:00,82.7,65.9,29.88,East,87,0.2,1.2,57,0.00,CLR,,0.01,14.0,WeatherDisplay:10.37,2013-10-04 23:34:00,
2013-10-04 18:39:00,82.2,66.0,29.88,East,87,0.3,1.2,58,0.00,CLR,,0.01,12.0,WeatherDisplay:10.37,2013-10-04 23:39:00,
2013-10-04 18:44:00,81.6,66.4,29.88,East,87,0.0,0.0,60,0.00,CLR,,0.01,9.0,WeatherDisplay:10.37,2013-10-04 23:44:00,
2013-10-04 18:49:00,81.0,66.3,29.88,East,87,0.0,0.0,61,0.00,CLR,,0.01,5.0,WeatherDisplay:10.37,2013-10-04 23:49:00,
2013-10-04 18:54:00,80.8,66.6,29.89,ESE,116,1.5,2.3,62,0.00,CLR,,0.01,0.0,WeatherDisplay:10.37,2013-10-04 23:54:00,
2013-10-04 18:59:00,80.6,66.8,29.89,ESE,116,0.0,0.0,63,0.00,CLR,,0.01,0.0,WeatherDisplay:10.37,2013-10-04 23:59:00,
2013-10-04 19:04:00,80.3,67.0,29.88,ESE,116,0.4,1.2,64,0.00,CLR,,0.01,0.0,WeatherDisplay:10.37,2013-10-05 00:04:00,
2013-10-04 19:09:00,80.2,66.9,29.88,ESE,116,0.4,1.2,64,0.00,CLR,,0.01,0.0,WeatherDisplay:10.37,2013-10-05 00:09:00,
2013-10-04 19:14:00,80.0,67.2,29.88,ESE,116,0.0,0.0,65,0.00,CLR,,0.01,0.0,WeatherDisplay:10.37,2013-10-05 00:14:00,
2013-10-04 19:19:00,79.5,67.6,29.88,East,101,0.0,1.3,67,0.00,CLR,,0.01,0.0,WeatherDisplay:10.37,2013-10-05 00:19:00,
2013-10-04 19:24:00,79.5,68.0,29.88,ESE,106,1.5,1.5,68,0.00,CLR,,0.01,0.0,WeatherDisplay:10.37,2013-10-05 00:24:00,
2013-10-04 19:29:00,79.5,68.0,29.89,SE,134,0.8,2.3,68,0.00,CLR,,0.01,0.0,WeatherDisplay:10.37,2013-10-05 00:29:00,
2013-10-04 19:34:00,79.4,68.3,29.89,ESE,104,0.9,1.3,69,0.00,CLR,,0.01,0.0,WeatherDisplay:10.37,2013-10-05 00:34:00,
2013-10-04 19:39:00,79.4,68.8,29.89,SE,128,0.0,0.0,70,0.00,CLR,,0.01,0.0,WeatherDisplay:10.37,2013-10-05 00:39:00,
2013-10-04 19:44:00,79.4,68.8,29.89,ESE,105,2.9,4.0,70,0.00,CLR,,0.01,0.0,WeatherDisplay:10.37,2013-10-05 00:44:00,
2013-10-04 19:49:00,79.4,69.2,29.89,SE,128,1.2,3.5,71,0.00,CLR,,0.01,0.0,WeatherDisplay:10.37,2013-10-05 00:49:00,
2013-10-04 19:54:00,79.4,69.2,29.89,SE,136,0.2,1.2,71,0.00,CLR,,0.01,0.0,WeatherDisplay:10.37,2013-10-05 00:54:00,
2013-10-04 19:59:00,79.4,69.2,29.89,SSE,157,0.8,2.3,71,0.00,CLR,,0.01,0.0,WeatherDisplay:10.37,2013-10-05 00:59:00,
2013-10-04 20:04:00,79.3,69.1,29.89,SE,144,0.0,0.0,71,0.00,CLR,,0.01,0.0,WeatherDisplay:10.37,2013-10-05 01:04:00,
2013-10-04 20:09:00,79.2,69.4,29.90,SE,125,3.4,4.0,72,0.00,CLR,,0.01,0.0,WeatherDisplay:10.37,2013-10-05 01:09:00,
2013-10-04 20:14:00,79.1,69.3,29.89,SE,125,2.2,5.8,72,0.00,CLR,,0.01,0.0,WeatherDisplay:10.37,2013-10-05 01:14:00,
2013-10-04 20:19:00,79.0,69.2,29.90,ESE,117,0.2,0.0,72,0.00,CLR,,0.01,0.0,WeatherDisplay:10.37,2013-10-05 01:19:00,
2013-10-04 20:24:00,78.9,69.5,29.90,ESE,112,1.2,5.8,73,0.00,CLR,,0.01,0.0,WeatherDisplay:10.37,2013-10-05 01:24:00,
2013-10-04 20:29:00,78.5,69.1,29.90,SE,137,0.5,1.3,73,0.00,CLR,,0.01,0.0,WeatherDisplay:10.37,2013-10-05 01:29:00,
2013-10-04 20:34:00,78.5,69.5,29.90,ESE,122,2.0,3.5,74,0.00,CLR,,0.01,0.0,WeatherDisplay:10.37,2013-10-05 01:34:00,
2013-10-04 20:39:00,78.3,69.3,29.90,ESE,121,0.2,1.2,74,0.00,CLR,,0.01,0.0,WeatherDisplay:10.37,2013-10-05 01:39:00,
2013-10-04 20:44:00,78.0,69.4,29.90,SE,125,2.2,5.3,75,0.00,CLR,,0.01,0.0,WeatherDisplay:10.37,2013-10-05 01:44:00,
2013-10-04 20:49:00,77.9,69.7,29.91,ESE,108,0.4,2.6,76,0.00,CLR,,0.01,0.0,WeatherDisplay:10.37,2013-10-05 01:49:00,
2013-10-04 20:54:00,77.8,69.6,29.91,East,98,0.1,1.3,76,0.00,CLR,,0.01,0.0,WeatherDisplay:10.37,2013-10-05 01:54:00,
2013-10-04 20:59:00,77.8,69.6,29.92,SE,140,0.1,1.3,76,0.00,CLR,,0.01,0.0,WeatherDisplay:10.37,2013-10-05 01:59:00,
2013-10-04 21:04:00,77.7,69.5,29.92,SE,143,3.2,5.8,76,0.00,CLR,,0.01,0.0,WeatherDisplay:10.37,2013-10-05 02:04:00,
2013-10-04 21:09:00,77.6,69.4,29.92,ESE,106,1.8,2.3,76,0.00,CLR,,0.01,0.0,WeatherDisplay:10.37,2013-10-05 02:09:00,
2013-10-04 21:14:00,77.4,69.6,29.92,ESE,116,0.3,2.3,77,0.00,CLR,,0.01,0.0,WeatherDisplay:10.37,2013-10-05 02:14:00,
2013-10-04 21:19:00,77.2,69.4,29.92,ESE,116,0.7,2.3,77,0.00,CLR,,0.01,0.0,WeatherDisplay:10.37,2013-10-05 02:19:00,
2013-10-04 21:24:00,77.1,69.7,29.92,ESE,116,0.0,0.0,78,0.00,CLR,,0.01,0.0,WeatherDisplay:10.37,2013-10-05 02:24:00,
2013-10-04 21:29:00,76.7,69.3,29.92,SE,130,0.5,0.0,78,0.00,CLR,,0.01,0.0,WeatherDisplay:10.37,2013-10-05 02:29:00,
2013-10-04 21:34:00,76.4,69.4,29.92,SE,130,0.0,0.0,79,0.00,CLR,,0.01,0.0,WeatherDisplay:10.37,2013-10-05 02:34:00,
2013-10-04 21:39:00,76.4,69.8,29.93,SE,130,2.1,2.6,80,0.00,CLR,,0.01,0.0,WeatherDisplay:10.37,2013-10-05 02:39:00,
2013-10-04 21:44:00,76.2,69.6,29.93,East,97,2.1,4.0,80,0.00,CLR,,0.01,0.0,WeatherDisplay:10.37,2013-10-05 02:44:00,
2013-10-04 21:49:00,76.4,69.4,29.93,East,101,1.5,2.3,79,0.00,CLR,,0.01,0.0,WeatherDisplay:10.37,2013-10-05 02:49:00,
2013-10-04 21:54:00,76.5,69.5,29.93,SE,146,3.3,6.9,79,0.00,CLR,,0.01,0.0,WeatherDisplay:10.37,2013-10-05 02:54:00,
2013-10-04 21:59:00,76.6,69.6,29.93,ESE,113,3.9,9.2,79,0.00,CLR,,0.01,0.0,WeatherDisplay:10.37,2013-10-05 02:59:00,
2013-10-04 22:04:00,76.6,69.6,29.93,ESE,109,0.8,1.3,79,0.00,FEW,,0.01,0.0,WeatherDisplay:10.37,2013-10-05 03:04:00,
2013-10-04 22:09:00,76.4,69.4,29.94,SE,125,0.8,4.0,79,0.00,FEW,,0.01,0.0,WeatherDisplay:10.37,2013-10-05 03:09:00,
2013-10-04 22:14:00,76.2,69.2,29.94,ESE,120,2.0,3.5,79,0.00,FEW,,0.01,0.0,WeatherDisplay:10.37,2013-10-05 03:14:00,
2013-10-04 22:19:00,76.0,69.4,29.94,ESE,120,2.2,3.5,80,0.00,FEW,,0.01,0.0,WeatherDisplay:10.37,2013-10-05 03:19:00,
2013-10-04 22:24:00,75.7,69.1,29.94,SE,131,0.5,2.3,80,0.00,FEW,,0.01,0.0,WeatherDisplay:10.37,2013-10-05 03:24:00,
2013-10-04 22:29:00,75.5,69.3,29.94,SE,135,0.4,1.2,81,0.00,FEW,,0.01,0.0,WeatherDisplay:10.37,2013-10-05 03:29:00,
2013-10-04 22:34:00,75.5,69.3,29.94,SE,127,0.5,1.3,81,0.00,FEW,,0.01,0.0,WeatherDisplay:10.37,2013-10-05 03:34:00,
2013-10-04 22:39:00,75.3,69.1,29.94,SE,127,1.7,2.6,81,0.00,FEW,,0.01,0.0,WeatherDisplay:10.37,2013-10-05 03:39:00,
2013-10-04 22:44:00,75.3,69.1,29.94,East,94,0.3,1.2,81,0.00,FEW,,0.01,0.0,WeatherDisplay:10.37,2013-10-05 03:44:00,
2013-10-04 22:49:00,75.3,69.4,29.94,ESE,116,1.6,2.6,82,0.00,FEW,,0.01,0.0,WeatherDisplay:10.37,2013-10-05 03:49:00,
2013-10-04 22:54:00,75.3,69.4,29.94,East,98,4.0,6.9,82,0.00,FEW,,0.01,0.0,WeatherDisplay:10.37,2013-10-05 03:54:00,
2013-10-04 22:59:00,75.4,69.5,29.94,ESE,104,1.8,2.3,82,0.00,FEW,,0.01,0.0,WeatherDisplay:10.37,2013-10-05 03:59:00,
2013-10-04 23:01:00,75.5,69.3,29.94,ESE,102,1.5,2.3,81,0.00,BKN,,0.01,0.0,WeatherDisplay:10.37,2013-10-05 04:01:00,
2013-10-04 23:02:00,75.5,69.6,29.94,ESE,102,0.7,2.3,82,0.00,BKN,,0.01,0.0,WeatherDisplay:10.37,2013-10-05 04:02:00,
2013-10-04 23:03:00,75.4,69.5,29.94,ESE,102,0.6,1.2,82,0.00,BKN,,0.01,0.0,WeatherDisplay:10.37,2013-10-05 04:03:00,
2013-10-04 23:08:00,75.1,69.2,29.94,ESE,102,0.0,0.0,82,0.00,BKN,,0.01,0.0,WeatherDisplay:10.37,2013-10-05 04:08:00,
2013-10-04 23:13:00,74.8,69.3,29.95,ESE,102,0.0,0.0,83,0.00,BKN,,0.01,0.0,WeatherDisplay:10.37,2013-10-05 04:13:00,
2013-10-04 23:18:00,74.5,69.0,29.95,ESE,102,0.0,1.2,83,0.00,BKN,,0.01,0.0,WeatherDisplay:10.37,2013-10-05 04:18:00,
2013-10-04 23:23:00,74.0,68.9,29.95,ESE,102,0.0,0.0,84,0.00,BKN,,0.01,0.0,WeatherDisplay:10.37,2013-10-05 04:23:00,
2013-10-04 23:28:00,73.6,68.8,29.94,ESE,102,0.4,2.3,85,0.00,BKN,,0.01,0.0,WeatherDisplay:10.37,2013-10-05 04:28:00,
2013-10-04 23:33:00,73.4,69.0,29.94,ESE,102,0.0,0.0,86,0.00,BKN,,0.01,0.0,WeatherDisplay:10.37,2013-10-05 04:33:00,
2013-10-04 23:38:00,73.2,68.8,29.94,ESE,102,0.0,0.0,86,0.00,BKN,,0.01,0.0,WeatherDisplay:10.37,2013-10-05 04:38:00,
2013-10-04 23:43:00,73.0,68.9,29.94,ESE,102,0.0,0.0,87,0.00,BKN,,0.01,0.0,WeatherDisplay:10.37,2013-10-05 04:43:00,
2013-10-04 23:48:00,72.9,68.8,29.94,ESE,102,0.0,0.0,87,0.00,BKN,,0.01,0.0,WeatherDisplay:10.37,2013-10-05 04:48:00,
2013-10-04 23:53:00,72.8,68.7,29.94,ESE,102,0.0,0.0,87,0.00,BKN,,0.01,0.0,WeatherDisplay:10.37,2013-10-05 04:53:00,
2013-10-04 23:58:00,72.4,68.3,29.94,ESE,102,0.0,0.0,87,0.00,BKN,,0.01,0.0,WeatherDisplay:10.37,2013-10-05 04:58:00,